This demonstration page uses our WeatherBlox Daily Observations layout. Learn more.

Left ArrowRight Arrow

34.74481, -87.66753

Hourly Observations for March 18, 2018

Temp ( °F °C ) Dew Point ( °F °C ) Humidity (%) Winds ( mph kmh ) Pressure ( in mb ) Visibility ( mi km ) Precip ( " mm )
12:53 am 00:53 Clear 61 16.1 44 6.7 54 54 N 6 9 29.91 1013 10 16 0.00 0.00
1:53 am 01:53 Clear 59 15 45 7.2 60 60 NNW 5 7 29.94 1014 10 16 0.00 0.00
2:53 am 02:53 Clear 56 13.3 46 7.8 70 70 N 6 9 29.94 1014 10 16 0.00 0.00
3:53 am 03:53 Clear 54 12.2 46 7.8 75 75 ENE 7 11 29.94 1014 10 16 0.00 0.00
4:53 am 04:53 Clear 52 11.1 44 6.7 75 75 NNE 10 17 29.95 1014 8 13 0.00 0.00
5:53 am 05:53 Mostly Clear 50 10 43 6.1 77 77 NNE 7 11 29.97 1015 7 11 0.00 0.00
6:53 am 06:53 Clear 49 9.4 42 5.6 77 77 NE 10 17 29.98 1015 7 11 0.00 0.00
7:53 am 07:53 Hazy 49 9.4 42 5.6 77 77 NE 7 11 30.01 1016 6 10 0.00 0.00
8:53 am 08:53 Hazy 49 9.4 42 5.6 77 77 ENE 7 11 30.00 1016 6 10 0.00 0.00
9:53 am 09:53 Hazy 50 10 42 5.6 74 74 NE 5 7 30.01 1016 6 10 0.00 0.00
10:51 am 10:51 Mostly Cloudy 52 11 43 6 72 72 ENE 3 6 30.03 1017 7 11 0.00 0.00
10:53 am 10:53 Mostly Cloudy 52 11.1 43 6.1 72 72 NE 6 9 30.01 1016 7 11 0.00 0.00
11:00 am 11:00 Partly Cloudy 52 11.1 43 6.1 72 72 VRB 3 6 30.00 1016 7 11 0.00 0.00
11:53 am 11:53 Sunny 55 12.8 43 6.1 64 64 Calm 30.00 1016 8 13 0.00 0.00
12:53 pm 12:53 Sunny 59 15 45 7.2 60 60 ENE 9 15 29.95 1014 9 14 0.00 0.00
1:53 pm 13:53 Mostly Sunny 60 15.6 44 6.7 56 56 Calm 29.92 1013 10 16 0.00 0.00
2:53 pm 14:53 Mostly Cloudy 61 16.1 44 6.7 54 54 SSE 3 6 29.91 1013 10 16 0.00 0.00
3:53 pm 15:53 Cloudy 61 16.1 44 6.7 54 54 Calm 29.89 1012 10 16 0.00 0.00
4:53 pm 16:53 Cloudy 61 16.1 45 7.2 56 56 ENE 6 9 29.88 1012 10 16 0.00 0.00
5:53 pm 17:53 Cloudy 61 16.1 45 7.2 56 56 Calm 29.88 1012 10 16 0.00 0.00
6:53 pm 18:53 Cloudy 59 15 46 7.8 62 62 ENE 5 7 29.87 1011 10 16 0.00 0.00
7:53 pm 19:53 Cloudy 58 14.4 47 8.3 67 67 ESE 3 6 29.84 1011 10 16 0.00 0.00
8:53 pm 20:53 Partly Cloudy 57 13.9 47 8.3 69 69 NNE 5 7 29.84 1011 10 16 0.00 0.00
9:53 pm 21:53 Cloudy 57 13.9 47 8.3 69 69 NE 5 7 29.84 1011 10 16 0.00 0.00
10:53 pm 22:53 Cloudy 56 13.3 47 8.3 72 72 Calm 29.84 1010 10 16 0.00 0.00
11:53 pm 23:53 Cloudy with Light Rain 54 12.2 48 8.9 80 80 NE 7 11 29.86 1011 8 13 0.01 0.25

Powered by AerisWeather